Station ALIA2 - 9457804 - Alitak, AK Image indicating link to RSS feed of recent meteorological observations for station ALIA2


Conditions at ALIA2 as of
(11:00 pm AKDT on 04/22/2024)
0700 GMT on 04/23/2024:
     

Click on the graph icon in the table below to see a time series plot of the last five days of that observation.

5-day plot - Wind Direction Wind Direction (WDIR): E ( 90 deg true )
5-day plot - Wind Speed Wind Speed (WSPD): 5.1 kts
5-day plot - Wind Gust Wind Gust (GST): 8.0 kts
5-day plot - Atmospheric Pressure Atmospheric Pressure (PRES):29.93 in
5-day plot - Pressure Tendency Pressure Tendency (PTDY):-0.01 in ( Falling )
5-day plot - Air Temperature Air Temperature (ATMP): 40.6 °F
5-day plot - Water Temperature Water Temperature (WTMP): 39.6 °F
5-day plot - Wind Chill Wind Chill (CHILL): 36.7 °F
5-day plot - Wind Speed at 10 Meters Wind Speed at 10 meters (WSPD10M): 5.8 kts
5-day plot - Wind Speed at 20 Meters Wind Speed at 20 meters (WSPD20M): 5.8 kts
5-day plot -  Wind Speed, Wind Gust and Atmospheric Pressure Combined plot of Wind Speed, Gust, and Air Pressure
NOS Water Level Observation Network Water Level
Previous observations
TIME
(AKDT)
5-day plot - Wind Direction
WDIR
 
5-day plot - Wind Speed
WSPD
kts
5-day plot - Wind Gust
GST
kts
5-day plot - Wave Height
WVHT
ft
5-day plot - Dominant Wave Period
DPD
sec
5-day plot - Average Wave Period
APD
sec
5-day plot - Mean Wave Direction
MWD
 
5-day plot - Atmospheric Pressure
PRES
in
5-day plot - Pressure Tendency
PTDY
in
5-day plot - Air Temperature
ATMP
°F
5-day plot - Water Temperature
WTMP
°F
5-day plot - Dew Point
DEWP
°F
5-day plot - Salinity
SAL
psu
5-day plot - Visibility
VIS
nmi
5-day plot - Tide (above MLLW)
TIDE
ft
2024-04-22 10:54 pm E 5.1 7.0----29.93- 40.5 39.6----
2024-04-22 10:48 pm E 6.0 8.0----29.93- 40.6 39.6----
2024-04-22 10:42 pm E 4.1 6.0----29.93- 40.5 39.6----
2024-04-22 10:36 pmESE 4.1 6.0----29.93- 40.5 39.6----
2024-04-22 10:30 pm E 6.0 8.9----29.93- 40.6 39.7----
2024-04-22 10:24 pmESE 5.1 7.0----29.93- 40.8 39.7----
2024-04-22 10:18 pm E 2.9 6.0----29.93- 41.0 39.7----
2024-04-22 10:12 pm E 5.1 12.0----29.93- 41.2 39.7----
2024-04-22 10:06 pm E 4.1 9.9----29.93- 41.4 39.7----
2024-04-22 10:00 pmENE 7.0 9.9----29.93-0.01 41.7 39.7----
2024-04-22 09:54 pm E 4.1 8.0----29.93- 41.5 39.7----
2024-04-22 09:48 pm E 5.1 6.0----29.93- 41.5 39.7----
2024-04-22 09:42 pm E 6.0 7.0----29.93- 41.5 39.7----
2024-04-22 09:36 pm E 4.1 7.0----29.94- 41.4 39.7----
2024-04-22 09:30 pmESE 5.1 7.0----29.94- 41.2 39.7----
2024-04-22 09:24 pmESE 7.0 9.9----29.94- 41.2 39.7----
2024-04-22 09:18 pm E 7.0 9.9----29.94- 41.2 39.7----
2024-04-22 09:12 pmESE 8.9 11.1----29.94- 41.2 39.7----
2024-04-22 09:06 pmESE 8.0 11.1----29.94- 41.4 39.7----
2024-04-22 09:00 pmESE 8.0 12.0----29.94-0.01 41.2 39.7----
2024-04-22 08:54 pmESE 8.9 11.1----29.94- 41.2 39.7----
2024-04-22 08:48 pmESE 8.0 8.9----29.94- 41.4 39.6----
2024-04-22 08:42 pm E 6.0 8.9----29.94- 41.4 39.6----
2024-04-22 08:36 pmESE 5.1 8.0----29.94- 41.5 39.6----
2024-04-22 08:30 pmESE 7.0 9.9----29.94- 41.2 39.6----
2024-04-22 08:24 pmESE 8.9 11.1----29.94- 41.5 39.6----
2024-04-22 08:18 pmESE 8.9 12.0----29.94- 41.7 39.6----
2024-04-22 08:12 pmESE 8.9 12.0----29.94- 41.9 39.6----
2024-04-22 08:06 pmESE 9.9 12.0----29.94- 41.5 39.4----
2024-04-22 08:00 pmESE 8.9 12.0----29.94-0.03 41.5 39.4----
2024-04-22 07:54 pmESE 11.1 13.0----29.94- 41.7 39.4----
2024-04-22 07:48 pmESE 9.9 13.0----29.94- 41.7 39.4----
2024-04-22 07:42 pmESE 11.1 13.0----29.94- 41.9 39.2----
2024-04-22 07:36 pmESE 11.1 12.0----29.94- 41.5 39.2----
2024-04-22 07:30 pmESE 11.1 13.0----29.94- 41.5 39.2----
2024-04-22 07:24 pmESE 11.1 13.0----29.94- 41.2 39.2----
2024-04-22 07:18 pmESE 11.1 13.0----29.94- 41.2 39.2----
2024-04-22 07:12 pmESE 9.9 12.0----29.94- 41.2 39.2----
2024-04-22 07:06 pmESE 8.0 9.9----29.94- 41.2 39.0----
2024-04-22 07:00 pmESE 7.0 9.9----29.94-0.03 41.5 39.0----
2024-04-22 06:54 pmESE 8.9 9.9----29.95- 41.9 38.8----
2024-04-22 06:48 pmESE 6.0 8.9----29.95- 41.7 38.8----
2024-04-22 06:42 pmESE 7.0 8.9----29.95- 41.9 38.8----
2024-04-22 06:36 pmESE 7.0 9.9----29.95- 42.1 38.8----
2024-04-22 06:30 pmESE 7.0 8.0----29.95- 41.7 38.8----
2024-04-22 06:24 pmESE 6.0 8.9----29.95- 41.7 38.7----
2024-04-22 06:18 pmESE 7.0 8.0----29.95- 41.5 38.7----
2024-04-22 06:12 pmESE 6.0 8.0----29.95- 42.1 38.7----
2024-04-22 06:06 pmESE 7.0 9.9----29.95- 42.3 38.8----
2024-04-22 06:00 pmESE 9.9 9.9----29.96-0.03 42.3 39.0----
2024-04-22 05:54 pmESE 8.9 9.9----29.96- 42.4 39.2----
2024-04-22 05:48 pmESE 7.0 9.9----29.96- 42.4 39.2----
2024-04-22 05:42 pmESE 7.0 9.9----29.96- 42.6 39.2----
2024-04-22 05:36 pmESE 7.0 9.9----29.96- 42.4 39.0----
2024-04-22 05:30 pmESE 7.0 8.9----29.96- 42.3 39.0----
2024-04-22 05:24 pmESE 7.0 9.9----29.96- 42.8 38.5----
2024-04-22 05:18 pmESE 6.0 8.9----29.96-- 38.7----
2024-04-22 05:12 pmESE 6.0 8.0----29.96-- 38.3----
2024-04-22 05:06 pmESE 7.0 8.9----29.96-- 38.1----
2024-04-22 05:00 pmESE 6.0 9.9----29.97-0.02 43.0 38.1----
2024-04-22 04:54 pm E 6.0 8.9----29.97- 43.2 38.3----
2024-04-22 04:48 pm E 7.0 11.1----29.97-- 38.5----
2024-04-22 04:42 pmESE 7.0 8.9----29.97-- 38.5----
2024-04-22 04:36 pmESE 7.0 8.9----29.97-- 38.5----
2024-04-22 04:30 pmESE 7.0 8.9----29.97- 42.4 38.5----
2024-04-22 04:24 pmESE 7.0 9.9----29.97- 42.4 38.5----
2024-04-22 04:18 pm--------- 42.3 38.5----
2024-04-22 04:12 pm--------- 42.1 38.5----
2024-04-22 04:06 pm--------- 42.8 38.3----
2024-04-22 04:00 pmESE 7.0 9.9----29.98-0.01 43.3 38.1----
2024-04-22 03:54 pm E 6.0 8.9----29.98- 43.7 37.9----
2024-04-22 03:48 pm E 6.0 8.0----29.98- 43.3 37.8----
2024-04-22 03:42 pm E 6.0 8.9----29.98- 43.2 37.9----
2024-04-22 03:36 pm E 7.0 9.9----29.98- 43.2 38.1----
2024-04-22 03:30 pm E 7.0 11.1----29.98- 43.3 38.1----
2024-04-22 03:24 pm E 6.0 8.9----29.98- 43.7 38.1----
2024-04-22 03:18 pm SE 4.1 7.0----29.98- 42.8 38.3----
2024-04-22 03:12 pm W 2.9 5.1----29.98- 42.4 38.3----
2024-04-22 03:06 pm SW 1.9 5.1----29.98- 42.4 38.3----
2024-04-22 03:00 pm- 0.0 5.1----29.98+0.00 42.4 37.9----
2024-04-22 02:54 pmWSW 1.9 6.0----29.98- 41.9 37.9----
2024-04-22 02:48 pm W 4.1 8.0----29.98- 41.4 37.9----
2024-04-22 02:42 pm W 2.9 8.0----29.98- 41.2 37.9----
2024-04-22 02:36 pm W 4.1 8.9----29.98- 40.5 38.1----
2024-04-22 02:30 pm W 6.0 9.9----29.99- 40.3 38.3----
2024-04-22 02:24 pm W 8.0 9.9----29.99- 40.5 38.5----
2024-04-22 02:18 pm W 5.1 7.0----29.99- 40.6 38.5----
2024-04-22 02:12 pm W 4.1 7.0----29.99- 41.0 38.7----
2024-04-22 02:06 pm W 2.9 5.1----29.99- 41.5 38.3----
2024-04-22 02:00 pm W 2.9 5.1----29.99+0.00 41.4 38.3----
2024-04-22 01:54 pm W 1.9 7.0----29.99- 41.4 38.8----
2024-04-22 01:48 pm- 0.0 4.1----29.99- 42.1 39.0----
2024-04-22 01:42 pm N 1.9 8.0----29.99- 42.3 39.0----
2024-04-22 01:36 pm E 7.0 8.9----29.99- 42.6 39.0----
2024-04-22 01:30 pm E 7.0 8.9----29.99- 42.1 39.0----
2024-04-22 01:24 pmESE 6.0 8.9----29.99- 42.1 39.0----
2024-04-22 01:18 pmESE 6.0 8.9----29.99- 42.4 39.0----
2024-04-22 01:12 pm E 5.1 9.9----29.99- 43.0 39.0----
2024-04-22 01:06 pm E 8.0 9.9----29.99- 42.8 39.0----
2024-04-22 01:00 pmENE 5.1 11.1----29.99+0.00 43.2 39.0----
2024-04-22 12:54 pm E 6.0 8.9----29.99- 43.0 39.0----
2024-04-22 12:48 pm E 5.1 8.9----29.99- 42.8 39.0----
2024-04-22 12:42 pm E 6.0 8.9----29.99- 43.2 39.0----
2024-04-22 12:36 pmNNE 5.1 8.0----29.99- 43.5 39.0----
2024-04-22 12:30 pmENE 6.0 8.0----29.99- 43.0 39.2----
2024-04-22 12:24 pm E 4.1 6.0----29.99- 43.0 39.2----
2024-04-22 12:18 pm NE 5.1 12.0----29.99- 42.4 39.2----
2024-04-22 12:12 pm E 7.0 12.0----29.99- 42.1 39.2----
2024-04-22 12:06 pm E 8.0 12.0----29.99- 42.4 39.2----
2024-04-22 12:00 pm E 8.9 11.1----29.99+0.00 42.6 39.0----
2024-04-22 11:54 amESE 5.1 8.9----29.99- 41.7 39.2----
2024-04-22 11:48 am E 5.1 8.9----29.99- 42.3 39.2----
2024-04-22 11:42 am E 5.1 8.9----29.99- 41.5 39.2----
2024-04-22 11:36 amESE 6.0 8.9----29.99- 41.2 39.2----
2024-04-22 11:30 am E 8.0 11.1----29.99- 41.5 39.2----
2024-04-22 11:24 am E 7.0 14.0----29.99- 41.9 39.2----
2024-04-22 11:18 am E 9.9 14.0----29.99- 41.9 39.2----
2024-04-22 11:12 am E 8.0 13.0----29.99- 42.1 39.2----
2024-04-22 11:06 amENE 8.0 17.1----29.99- 41.9 39.2----
2024-04-22 11:00 am E 8.0 15.0----29.99+0.01 41.9 39.2----
2024-04-22 10:54 am E 8.9 12.0----29.99- 41.4 39.4----
2024-04-22 10:48 amENE 8.0 12.0----29.99- 41.4 39.4----
2024-04-22 10:42 amENE 7.0 14.0----29.99- 41.0 39.2----
2024-04-22 10:36 amESE 7.0 8.9----29.99- 40.8 39.4----
2024-04-22 10:30 amESE 7.0 11.1----29.99- 40.8 39.4----
2024-04-22 10:24 am E 7.0 11.1----29.99- 40.6 39.2----
2024-04-22 10:18 amESE 6.0 8.9----29.99- 40.6 39.4----
2024-04-22 10:12 am E 6.0 8.9----29.99- 40.6 39.4----
2024-04-22 10:06 amESE 6.0 8.0----29.99- 41.0 39.7----
2024-04-22 10:00 am E 5.1 8.9----29.99+0.01 40.6 39.9----
2024-04-22 09:54 amESE 5.1 8.0----29.99- 40.5 39.9----
2024-04-22 09:48 amESE 5.1 8.9----29.99- 40.8 39.9----
2024-04-22 09:42 amESE 6.0 8.9----29.99- 40.6 39.7----
2024-04-22 09:36 amESE 4.1 7.0----29.99- 40.8 39.7----
2024-04-22 09:30 amESE 4.1 8.9----29.99- 40.8 39.7----
2024-04-22 09:24 amESE 7.0 8.0----29.99- 40.1 39.7----
2024-04-22 09:18 amESE 5.1 6.0----29.98- 40.6 39.7----
2024-04-22 09:12 amSSE 1.9 4.1----29.98- 41.4 39.6----
2024-04-22 09:06 amESE 1.9 4.1----29.98- 41.7 39.6----
2024-04-22 09:00 am NE 1.0 2.9----29.98+0.00 42.3 39.6----
2024-04-22 08:54 amNNE 1.9 4.1----29.98- 42.1 39.6----
2024-04-22 08:48 amENE 1.9 4.1----29.98- 41.5 39.6----
2024-04-22 08:42 amESE 1.9 2.9----29.98- 41.2 39.4----
2024-04-22 08:36 am E 1.9 2.9----29.98- 40.6 39.2----
2024-04-22 08:30 am NE 1.9 5.1----29.98- 40.6 39.2----
2024-04-22 08:24 am NE 2.9 6.0----29.98- 40.3 39.2----
2024-04-22 08:18 am E 2.9 6.0----29.98- 40.1 39.2----
2024-04-22 08:12 am NE 4.1 6.0----29.98- 39.7 39.2----
2024-04-22 08:06 am NE 4.1 8.9----29.98- 39.9 39.2----
2024-04-22 08:00 am NE 5.1 8.9----29.98-0.01 39.7 39.2----
2024-04-22 07:54 am NE 5.1 7.0----29.98- 38.8 39.2----
2024-04-22 07:48 amNNE 5.1 7.0----29.98- 38.8 39.2----
2024-04-22 07:42 am NE 6.0 8.9----29.98- 39.0 39.2----
2024-04-22 07:36 am NE 5.1 7.0----29.98- 39.2 39.2----
2024-04-22 07:30 amENE 5.1 8.9----29.98- 39.2 39.2----
2024-04-22 07:24 amENE 4.1 7.0----29.98- 39.0 39.0----
2024-04-22 07:18 amENE 5.1 6.0----29.98- 39.2 39.0----
2024-04-22 07:12 amNNE 6.0 8.0----29.98- 39.2 39.0----
2024-04-22 07:06 am NE 5.1 8.9----29.98- 38.8 39.0----
2024-04-22 07:00 am NE 2.9 4.1----29.98+0.00 38.8 38.8----
2024-04-22 06:54 am E 4.1 6.0----29.98- 39.0 38.8----
2024-04-22 06:48 am NE 1.9 5.1----29.98- 38.8 38.8----
2024-04-22 06:42 amENE 2.9 4.1----29.98- 38.7 38.8----
2024-04-22 06:36 am NE 2.9 6.0----29.98- 38.8 38.8----
2024-04-22 06:30 am NE 5.1 8.0----29.98- 38.8 38.8----
2024-04-22 06:24 amENE 6.0 8.0----29.98- 39.0 38.8----
2024-04-22 06:18 amENE 6.0 8.0----29.98- 39.4 38.8----
2024-04-22 06:12 amENE 4.1 6.0----29.99- 38.8 38.7----
2024-04-22 06:06 am NE 4.1 7.0----29.99- 39.0 38.7----
2024-04-22 06:00 am NE 5.1 8.0----29.99+0.01 39.0 38.5----
2024-04-22 05:54 amENE 5.1 9.9----29.99- 39.0 38.5----
2024-04-22 05:48 am NE 7.0 8.0----29.99- 39.0 38.5----
2024-04-22 05:42 am E 5.1 8.9----29.99- 38.8 38.5----
2024-04-22 05:36 amENE 5.1 8.0----29.99- 38.8 38.7----
2024-04-22 05:30 amENE 4.1 8.0----29.99- 38.8 39.0----
2024-04-22 05:24 am NE 6.0 8.9----29.99- 38.8 39.4----
2024-04-22 05:18 am NE 5.1 8.9----29.99- 38.8 39.4----
2024-04-22 05:12 am NE 2.9 5.1----29.99- 38.8 39.4----
2024-04-22 05:06 am E 1.9 2.9----29.99- 38.7 39.4----
2024-04-22 05:00 am E 1.9 4.1----29.99+0.02 38.5 39.4----
2024-04-22 04:54 amENE 2.9 5.1----29.98- 38.1 39.4----
2024-04-22 04:48 am E 1.0 1.9----29.99- 37.4 39.4----
2024-04-22 04:42 am- 0.0 1.0----29.99- 37.2 39.2----
2024-04-22 04:36 am- 0.0 2.9----29.99- 37.2 39.2----
2024-04-22 04:30 am NW 1.9 1.9----29.99- 37.4 39.4----
2024-04-22 04:24 am- 0.0 2.9----29.98- 37.4 38.8----
2024-04-22 04:18 amWNW 1.9 4.1----29.98- 37.4 38.8----
2024-04-22 04:12 am NW 2.9 4.1----29.98- 37.6 38.1----
2024-04-22 04:06 amWNW 1.9 4.1----29.98- 37.6 37.9----
2024-04-22 04:00 amWNW 2.9 2.9----29.98+0.03 37.6 37.9----
2024-04-22 03:54 am- 0.0 2.9----29.98- 37.9 38.1----
2024-04-22 03:48 amWNW 1.0 4.1----29.98- 38.1 38.5----
2024-04-22 03:42 am- 0.0 5.1----29.98- 38.8 38.8----
2024-04-22 03:36 amNNE 4.1 6.0----29.98- 38.7 38.8----
2024-04-22 03:30 am NE 2.9 5.1----29.98- 38.7 38.7----
2024-04-22 03:24 amENE 2.9 6.0----29.98- 38.8 38.3----
2024-04-22 03:18 amENE 4.1 6.0----29.98- 39.0 38.1----
2024-04-22 03:12 am NE 4.1 7.0----29.98- 39.0 38.1----
2024-04-22 03:06 am NE 1.0 2.9----29.98- 38.8 38.1----
2024-04-22 03:00 am NE 1.9 5.1----29.98+0.03 38.8 38.1----
2024-04-22 02:54 amENE 1.9 5.1----29.98- 38.8 38.1----
2024-04-22 02:48 amENE 2.9 5.1----29.97- 39.0 38.1----
2024-04-22 02:42 amENE 4.1 6.0----29.97- 38.8 37.9----
2024-04-22 02:36 am E 2.9 5.1----29.97- 38.8 37.9----
2024-04-22 02:30 am NE 2.9 5.1----29.97- 39.0 37.9----
2024-04-22 02:24 amENE 2.9 5.1----29.97- 39.2 37.9----
2024-04-22 02:18 am NE 4.1 5.1----29.97- 38.8 37.9----
2024-04-22 02:12 am N 1.0 6.0----29.97- 38.3 37.9----
2024-04-22 02:06 am N 2.9 6.0----29.97- 38.7 38.1----
2024-04-22 02:00 amNNE 1.0 4.1----29.97+0.03 38.7 38.1----
2024-04-22 01:54 am NW 1.9 5.1----29.96- 38.7 38.1----
2024-04-22 01:48 am- 0.0 2.9----29.96- 39.2 38.1----
2024-04-22 01:42 am NE 4.1 6.0----29.96- 39.2 38.3----
2024-04-22 01:36 amENE 4.1 6.0----29.96- 39.2 38.7----
2024-04-22 01:30 am E 4.1 6.0----29.96- 39.0 38.7----
2024-04-22 01:24 amENE 4.1 6.0----29.96- 39.0 38.7----
2024-04-22 01:18 am E 4.1 5.1----29.96- 38.8 38.7----
2024-04-22 01:12 amENE 4.1 7.0----29.96- 38.8 38.8----
2024-04-22 01:06 amENE 5.1 6.0----29.95- 38.8 38.8----
2024-04-22 01:00 amENE 5.1 8.9----29.95+0.03 39.0 39.2----
2024-04-22 12:54 amENE 5.1 8.0----29.95- 38.7 39.2----
2024-04-22 12:48 amENE 5.1 8.0----29.95- 38.3 39.2----
2024-04-22 12:42 am NE 7.0 11.1----29.95- 38.5 39.2----
2024-04-22 12:36 amENE 6.0 8.0----29.95- 38.8 39.2----
2024-04-22 12:30 amENE 6.0 8.0----29.95- 38.8 39.4----
2024-04-22 12:24 amENE 2.9 5.1----29.95- 38.7 39.4----
2024-04-22 12:18 amNNE 1.9 2.9----29.95- 38.1 39.4----
2024-04-22 12:12 am- 0.0 1.9----29.95- 37.9 39.4----
2024-04-22 12:06 am- 0.0 2.9----29.95- 37.9 39.2----
2024-04-22 12:00 am NW 1.9 4.1----29.95+0.05 37.8 39.0----
2024-04-21 11:54 pmWNW 1.0 1.9----29.95- 37.6 39.0----
2024-04-21 11:48 pm W 1.0 1.9----29.95- 37.8 38.8----
2024-04-21 11:42 pm- 0.0 1.9----29.94- 37.9 38.8----
2024-04-21 11:36 pmNNW 1.0 1.9----29.94- 37.8 38.8----
2024-04-21 11:30 pm NW 1.0 1.9----29.94- 37.8 38.7----
2024-04-21 11:24 pm E 1.0 5.1----29.94- 37.8 38.7----
2024-04-21 11:18 pm SE 5.1 5.1----29.94- 38.1 38.8----
2024-04-21 11:12 pm- 0.0 1.9----29.93- 38.8 38.8----
2024-04-21 11:06 pmESE 2.9 4.1----29.93- 38.3 39.0----
2024-04-21 11:00 pm- 0.0 2.9----29.93+0.04 38.5 39.2----
2024-04-21 10:54 pm SE 1.0 4.1----29.93- 38.3 39.2----